DW9395 Weather Reports


time (UTC)temp
C
wind
direction
speed
KPH
gust
KPH
rain 1hr
cm
rain 24hr
cm
rain mn
cm
humidity
%
barometer
mb
20260507043025 13 0.0 0.0 0.00 0.00 0.00 100 1016.2
20260507042521 14 0.0 0.0 0.00 0.00 0.00 100 1016.2
20260507042017 14 0.0 0.0 0.00 0.00 0.00 100 1016.3
20260507041516 14 0.0 0.0 0.00 0.00 0.00 100 1016.3
20260507041016 14 0.0 0.0 0.00 0.00 0.00 100 1016.3
20260507040513 14 0.0 0.0 0.00 0.00 0.00 100 1016.2
20260507040012 14 0.0 0.0 0.00 0.00 0.00 100 1016.1
20260507035512 14 0.0 0.0 0.00 0.00 0.00 100 1016.1
20260507035009 15 0.0 0.0 0.00 0.00 0.00 100 1016.0
20260507034513 15 0.0 0.0 0.00 0.00 0.00 100 1016.0
20260507034008 15 0.0 0.0 0.00 0.00 0.00 100 1016.0
20260507033504 15 0.0 0.0 0.00 0.00 0.00 100 1016.0
20260507033003 15 0.0 0.0 0.00 0.00 0.00 100 1015.9
20260507032503 15 0.0 0.0 0.00 0.00 0.00 100 1015.9
20260507032059 15 0.0 0.0 0.00 0.00 0.00 100 1015.7
20260507031559 15 0.0 0.0 0.00 0.00 0.00 100 1015.6
20260507031058 15 0.0 0.0 0.00 0.00 0.00 100 1015.6
20260507030555 15 0.0 0.0 0.00 0.00 0.00 100 1015.6
20260507030055 15 0.0 0.0 0.00 0.00 0.00 100 1015.5
20260507025552 15 0.0 0.0 0.00 0.00 0.00 100 1015.5
20260507025054 16 0.0 0.0 0.00 0.00 0.00 3 1015.4
20260507024553 16 0.0 0.0 0.00 0.00 0.00 8 1015.3
20260507024048 16 0.0 0.0 0.00 0.00 0.00 10 1015.2
20260507023546 16 0.0 0.0 0.00 0.00 0.00 15 1015.2
20260507023101 16 0.0 0.0 0.00 0.00 0.00 15 1015.2
20260507022544 16 0.0 0.0 0.00 0.00 0.00 15 1015.1
20260507022043 16 0.0 0.0 0.00 0.00 0.00 20 1015.2
20260507021541 16 0.0 0.0 0.00 0.00 0.00 31 1015.2
20260507021140 16 0.0 0.0 0.00 0.00 0.00 38 1015.2
20260507020539 17 0.0 0.0 0.00 0.00 0.00 44 1015.2
20260507020048 17 0.0 0.0 0.00 0.00 0.00 50 1015.2
20260507015535 17 0.0 0.0 0.00 0.00 0.00 55 1015.1
20260507015034 17 0.0 0.0 0.00 0.00 0.00 57 1015.1
20260507014535 17 0.0 0.0 0.00 0.00 0.00 58 1015.1
20260507014031 17 0.0 0.0 0.00 0.00 0.00 58 1015.0
20260507013529 17 0.0 0.0 0.00 0.00 0.00 58 1015.0
20260507013028 18 0.0 0.0 0.00 0.00 0.00 58 1015.1
20260507012529 18 0.0 0.0 0.00 0.00 0.00 58 1015.1
20260507012025 18 0.0 0.0 0.00 0.00 0.00 58 1015.1
20260507011538 18 0.0 0.0 0.00 0.00 0.00 58 1015.1
20260507011022 18 0.0 0.0 0.00 0.00 0.00 58 1015.1
20260507010521 18 360 0.0 0.0 0.00 0.00 0.00 58 1015.1
20260507010023 18 360 0.0 0.0 0.00 0.00 0.00 58 1015.1
20260507005519 18 0.0 0.0 0.00 0.00 0.00 58 1015.1
20260507005018 18 360 0.0 0.0 0.00 0.00 0.00 58 1015.1
20260507004515 18 0.0 0.0 0.00 0.00 0.00 58 1015.1
20260507004014 18 360 0.0 0.0 0.00 0.00 0.00 58 1015.1
20260507003514 18 360 0.0 0.0 0.00 0.00 0.00 58 1015.1
20260507003011 18 360 0.0 0.0 0.00 0.00 0.00 58 1015.2
20260507002509 18 360 0.0 0.0 0.00 0.00 0.00 57 1015.1
20260507002008 19 360 0.0 0.0 0.00 0.00 0.00 57 1015.1
20260507001521 19 360 0.0 0.0 0.00 0.00 0.00 57 1015.2
20260507001005 19 360 0.0 0.0 0.00 0.00 0.00 57 1015.2
20260507000505 19 360 0.0 0.0 0.00 0.00 0.00 57 1015.1
20260507000002 19 360 0.0 0.0 0.00 0.00 0.00 57 1015.1
20260506235501 19 360 0.0 0.0 0.00 0.00 0.00 57 1015.1
20260506235100 19 360 0.0 0.0 0.00 0.00 0.00 57 1015.2
20260506234600 19 360 0.0 0.0 0.00 0.00 0.00 56 1015.1
20260506234058 20 360 0.0 0.0 0.00 0.00 0.00 57 1015.1
20260506233555 19 360 0.0 0.0 0.00 0.00 0.00 56 1015.2
20260506233055 19 360 0.0 0.0 0.00 0.00 0.00 57 1015.2
20260506232553 20 360 0.0 0.0 0.00 0.00 0.00 56 1015.2
20260506232050 20 360 0.0 0.0 0.00 0.00 0.00 56 1015.3
20260506231554 20 360 0.0 0.0 0.00 0.00 0.00 57 1015.3
20260506231048 20 360 0.0 0.0 0.00 0.00 0.00 56 1015.4
20260506230546 20 360 0.0 0.0 0.00 0.00 0.00 57 1015.3
20260506230055 20 360 0.0 0.0 0.00 0.00 0.00 57 1015.3
20260506225545 20 360 0.0 0.0 0.00 0.00 0.00 57 1015.4
20260506225042 20 360 0.0 0.0 0.00 0.00 0.00 57 1015.4
20260506224543 20 360 0.0 0.0 0.00 0.00 0.00 57 1015.5
20260506224038 20 360 0.0 0.0 0.00 0.00 0.00 57 1015.6
20260506223539 20 360 0.0 0.0 0.00 0.00 0.00 56 1015.6
20260506223036 20 360 0.0 0.0 0.00 0.00 0.00 56 1015.7
20260506222535 20 360 0.0 0.0 0.00 0.00 0.00 56 1015.7
20260506222033 20 360 0.0 0.0 0.00 0.00 0.00 57 1015.8
20260506221531 20 360 0.0 0.0 0.00 0.00 0.00 58 1015.8
20260506221030 20 360 0.0 0.0 0.00 0.00 0.00 56 1015.9
20260506220529 21 360 0.0 0.0 0.00 0.00 0.00 55 1016.1
20260506220034 21 360 0.0 0.0 0.00 0.00 0.00 55 1016.1
20260506215526 21 360 0.0 0.0 0.00 0.00 0.00 55 1016.1
20260506215025 21 360 0.0 0.0 0.00 0.00 0.00 56 1016.2
20260506214523 21 360 0.0 0.0 0.00 0.00 0.00 55 1016.3
20260506214021 21 360 0.0 0.0 0.00 0.00 0.00 55 1016.3
20260506213523 21 360 0.0 0.0 0.00 0.00 0.00 55 1016.4
20260506213018 21 360 0.0 0.0 0.00 0.00 0.00 54 1016.4
20260506212517 21 360 0.0 0.0 0.00 0.00 0.00 54 1016.3
20260506212017 21 360 0.0 0.0 0.00 0.00 0.00 55 1016.3
20260506211517 21 360 0.0 0.0 0.00 0.00 0.00 55 1016.4
20260506211013 21 360 0.0 0.0 0.00 0.00 0.00 54 1016.4
20260506210517 21 360 0.0 0.0 0.00 0.00 0.00 54 1016.5
20260506210019 21 360 0.0 0.0 0.00 0.00 0.00 54 1016.4
20260506205508 21 360 0.0 0.0 0.00 0.00 0.00 53 1016.5
20260506205009 21 360 0.0 0.0 0.00 0.00 0.00 55 1016.4
20260506204506 21 360 0.0 0.0 0.00 0.00 0.00 55 1016.5
20260506204004 21 360 0.0 0.0 0.00 0.00 0.00 54 1016.5
20260506203502 21 360 0.0 0.0 0.00 0.00 0.00 55 1016.5
20260506203001 21 360 0.0 0.0 0.00 0.00 0.00 54 1016.6
20260506202559 21 360 0.0 0.0 0.00 0.00 0.00 54 1016.6
20260506202058 21 360 0.0 0.0 0.00 0.00 0.00 55 1016.7
20260506201557 21 360 0.0 0.0 0.00 0.00 0.00 54 1016.6
20260506201057 21 360 0.0 0.0 0.00 0.00 0.00 54 1016.7
20260506200557 21 360 0.0 0.0 0.00 0.00 0.00 54 1016.7
20260506200057 21 360 0.0 0.0 0.00 0.00 0.00 54 1016.8
20260506195551 20 360 0.0 0.0 0.00 0.00 0.00 55 1016.8
20260506195050 21 360 0.0 0.0 0.00 0.00 0.00 54 1016.8
20260506194549 21 360 0.0 0.0 0.00 0.00 0.00 53 1016.8
20260506194046 21 360 0.0 0.0 0.00 0.00 0.00 53 1016.9
20260506193545 21 360 0.0 0.0 0.00 0.00 0.00 53 1016.9
20260506193046 20 360 0.0 0.0 0.00 0.00 0.00 54 1016.9
20260506192542 20 360 0.0 0.0 0.00 0.00 0.00 53 1017.0
20260506192041 20 360 0.0 0.0 0.00 0.00 0.00 54 1017.0
20260506191540 20 360 0.0 0.0 0.00 0.00 0.00 54 1017.1
20260506191038 20 360 0.0 0.0 0.00 0.00 0.00 54 1017.2
20260506190537 20 360 0.0 0.0 0.00 0.00 0.00 53 1017.2
20260506190035 20 360 0.0 0.0 0.00 0.00 0.00 53 1017.2
20260506185534 20 360 0.0 0.0 0.00 0.00 0.00 53 1017.2
20260506185032 20 360 0.0 0.0 0.00 0.00 0.00 54 1017.3
20260506184537 20 360 0.0 0.0 0.00 0.00 0.00 54 1017.3
20260506184029 20 360 0.0 0.0 0.00 0.00 0.00 54 1017.3
20260506183528 20 360 0.0 0.0 0.00 0.00 0.00 53 1017.3
20260506183026 20 360 0.0 0.0 0.00 0.00 0.00 54 1017.3
20260506182524 20 360 0.0 0.0 0.00 0.00 0.00 54 1017.4
20260506182023 20 360 0.0 0.0 0.00 0.00 0.00 54 1017.4
20260506181534 20 360 0.0 0.0 0.00 0.00 0.00 54 1017.4
20260506181023 19 360 0.0 0.0 0.00 0.00 0.00 54 1017.5
20260506180523 19 360 0.0 0.0 0.00 0.00 0.00 54 1017.6
20260506180018 19 360 0.0 0.0 0.00 0.00 0.00 54 1017.5
20260506175516 19 360 0.0 0.0 0.00 0.00 0.00 54 1017.5
20260506175014 18 360 0.0 0.0 0.00 0.00 0.00 54 1017.4
20260506174513 18 360 0.0 0.0 0.00 0.00 0.00 54 1017.5
20260506174017 18 360 0.0 0.0 0.00 0.00 0.00 53 1017.5
20260506173510 18 360 0.0 0.0 0.00 0.00 0.00 53 1017.6
20260506173009 18 360 0.0 0.0 0.00 0.00 0.00 53 1017.6
20260506172507 18 360 0.0 0.0 0.00 0.00 0.00 53 1017.6
20260506172006 18 360 0.0 0.0 0.00 0.00 0.00 53 1017.6
20260506171505 18 360 0.0 0.0 0.00 0.00 0.00 54 1017.5
20260506171006 18 360 0.0 0.0 0.00 0.00 0.00 54 1017.5
20260506170501 18 360 0.0 0.0 0.00 0.00 0.00 53 1017.6
20260506170110 18 360 0.0 0.0 0.00 0.00 0.00 53 1017.6
20260506165559 18 360 0.0 0.0 0.00 0.00 0.00 53 1017.6
20260506165059 18 360 0.0 0.0 0.00 0.00 0.00 53 1017.6
20260506164624 18 360 0.0 0.0 0.00 0.00 0.00 52 1017.5
20260506164054 18 360 0.0 0.0 0.00 0.00 0.00 52 1017.5
20260506163552 18 360 0.0 0.0 0.00 0.00 0.00 52 1017.6
20260506163059 18 360 0.0 0.0 0.00 0.00 0.00 51 1017.6
20260506162552 18 360 0.0 0.0 0.00 0.00 0.00 51 1017.6
20260506162050 18 360 0.0 0.0 0.00 0.00 0.00 51 1017.6
20260506161547 18 360 0.0 0.0 0.00 0.00 0.00 50 1017.6
20260506161046 18 360 0.0 0.0 0.00 0.00 0.00 50 1017.6
20260506160544 17 360 0.0 0.0 0.00 0.00 0.00 49 1017.5
20260506160052 17 360 0.0 0.0 0.00 0.00 0.00 49 1017.6
20260506155541 17 360 0.0 0.0 0.00 0.00 0.00 48 1017.6
20260506155040 17 360 0.0 0.0 0.00 0.00 0.00 47 1017.6
20260506154542 17 360 0.0 0.0 0.00 0.00 0.00 46 1017.6
20260506154039 17 360 0.0 0.0 0.00 0.00 0.00 45 1017.6
20260506153539 16 360 0.0 0.0 0.00 0.00 0.00 42 1017.5
20260506153033 16 360 0.0 0.0 0.00 0.00 0.00 40 1017.6
20260506152532 16 360 0.0 0.0 0.00 0.00 0.00 41 1017.6
20260506152031 16 360 0.0 0.0 0.00 0.00 0.00 38 1017.7
20260506151530 15 360 0.0 0.0 0.00 0.00 0.00 33 1017.6
20260506151031 15 360 0.0 0.0 0.00 0.00 0.00 25 1017.7
20260506150527 15 360 0.0 0.0 0.00 0.00 0.00 21 1017.6
20260506150027 15 360 0.0 0.0 0.00 0.00 0.00 11 1017.7
20260506145524 15 360 0.0 0.0 0.00 0.00 0.00 2 1017.7
20260506145026 14 360 0.0 0.0 0.00 0.00 0.00 2 1017.6
20260506144526 14 360 0.0 0.0 0.00 0.00 0.00 100 1017.5
20260506144019 13 360 0.0 0.0 0.00 0.00 0.00 100 1017.5
20260506143521 13 360 0.0 0.0 0.00 0.00 0.00 100 1017.6
20260506143019 13 360 0.0 0.0 0.00 0.00 0.00 100 1017.4
20260506142515 12 360 0.0 0.0 0.00 0.00 0.00 100 1017.5
20260506142013 12 360 0.0 0.0 0.00 0.00 0.00 100 1017.4
20260506141524 12 360 0.0 0.0 0.00 0.00 0.00 100 1017.4
20260506141013 11 360 0.0 0.0 0.00 0.00 0.00 100 1017.5
20260506140510 11 360 0.0 0.0 0.00 0.00 0.00 100 1017.4
20260506140009 11 360 0.0 0.0 0.00 0.00 0.00 100 1017.4
20260506135506 10 360 0.0 0.0 0.00 0.00 0.00 100 1017.3
20260506135008 10 360 0.0 0.0 0.00 0.00 0.00 100 1017.4
20260506134504 10 360 0.0 0.0 0.00 0.00 0.00 100 1017.4
20260506134002 9 360 0.0 0.0 0.00 0.00 0.00 100 1017.3
20260506133601 9 360 0.0 0.0 0.00 0.00 0.00 100 1017.3
20260506133109 8 360 0.0 0.0 0.00 0.00 0.00 100 1017.3
20260506132603 8 360 0.0 0.0 0.00 0.00 0.00 100 1017.3
20260506132058 8 360 0.0 0.0 0.00 0.00 0.00 100 1017.2
20260506131614 8 360 0.0 0.0 0.00 0.00 0.00 100 1017.2
20260506131053 8 360 0.0 0.0 0.00 0.00 0.00 100 1017.2
20260506130552 8 360 0.0 0.0 0.00 0.00 0.00 100 1017.2
20260506130051 9 360 0.0 0.0 0.00 0.00 0.00 100 1017.1
20260506125549 9 360 0.0 0.0 0.00 0.00 0.00 100 1017.0
20260506125048 9 360 0.0 0.0 0.00 0.00 0.00 100 1017.0
20260506124546 9 360 0.0 0.0 0.00 0.00 0.00 100 1017.0
20260506124046 9 360 0.0 0.0 0.00 0.00 0.00 100 1016.9
20260506123544 9 360 0.0 0.0 0.00 0.00 0.00 100 1016.8
20260506123043 9 360 0.0 0.0 0.00 0.00 0.00 100 1016.7
20260506122541 9 360 0.0 0.0 0.00 0.00 0.00 100 1016.7
20260506122040 9 360 0.0 0.0 0.00 0.00 0.00 100 1016.7
20260506121537 9 360 0.0 0.0 0.00 0.00 0.00 100 1016.7
20260506121035 9 360 0.0 0.0 0.00 0.00 0.00 100 1016.7
20260506120537 9 360 0.0 0.0 0.00 0.00 0.00 100 1016.6
20260506120050 9 360 0.0 0.0 0.00 0.00 0.00 100 1016.6
20260506115531 9 360 0.0 0.0 0.00 0.00 0.00 100 1016.6
20260506115030 9 360 0.0 0.0 0.00 0.00 0.00 100 1016.6
20260506114532 9 360 0.0 0.0 0.00 0.00 0.00 100 1016.6
20260506114027 9 360 0.0 0.0 0.00 0.00 0.00 100 1016.6
20260506113525 9 360 0.0 0.0 0.00 0.00 0.00 100 1016.6
20260506113024 9 360 0.0 0.0 0.00 0.00 0.00 100 1016.5
20260506112522 9 0.0 0.0 0.00 0.00 0.00 100 1016.5
20260506112021 9 0.0 0.0 0.00 0.00 0.00 100 1016.5
20260506111520 10 0.0 0.0 0.00 0.00 0.00 100 1016.5
20260506111019 10 0.0 0.0 0.00 0.00 0.00 100 1016.5
20260506110517 10 0.0 0.0 0.00 0.00 0.00 100 1016.5
20260506110016 10 0.0 0.0 0.00 0.00 0.00 100 1016.4
20260506105517 10 0.0 0.0 0.00 0.00 0.00 100 1016.4
20260506105013 10 0.0 0.0 0.00 0.00 0.00 100 1016.3
20260506104523 10 0.0 0.0 0.00 0.00 0.00 100 1016.3
20260506104016 10 0.0 0.0 0.00 0.00 0.00 100 1016.4
20260506103508 10 0.0 0.0 0.00 0.00 0.00 100 1016.4
20260506103020 10 0.0 0.0 0.00 0.00 0.00 100 1016.4
20260506102507 10 0.0 0.0 0.00 0.00 0.00 100 1016.4
20260506102003 10 0.0 0.0 0.00 0.00 0.00 100 1016.5
20260506101505 10 0.0 0.0 0.00 0.00 0.00 100 1016.5
20260506101001 10 0.0 0.0 0.00 0.00 0.00 100 1016.5
20260506100606 10 0.0 0.0 0.00 0.00 0.00 100 1016.5
20260506100112 9 0.0 0.0 0.00 0.00 0.00 100 1016.5
20260506095557 9 0.0 0.0 0.00 0.00 0.00 100 1016.7
20260506095056 9 0.0 0.0 0.00 0.00 0.00 100 1016.6
20260506094601 9 0.0 0.0 0.00 0.00 0.00 100 1016.7
20260506094053 9 0.0 0.0 0.00 0.00 0.00 100 1016.6
20260506093551 9 0.0 0.0 0.00 0.00 0.00 100 1016.7
20260506093051 9 0.0 0.0 0.00 0.00 0.00 100 1016.6
20260506092549 9 0.0 0.0 0.00 0.00 0.00 100 1016.6
20260506092050 10 0.0 0.0 0.00 0.00 0.00 100 1016.6
20260506091546 10 0.0 0.0 0.00 0.00 0.00 100 1016.6
20260506091044 10 0.0 0.0 0.00 0.00 0.00 100 1016.8
20260506090542 10 0.0 0.0 0.00 0.00 0.00 100 1016.8
20260506090042 10 0.0 0.0 0.00 0.00 0.00 100 1016.8
20260506085539 10 0.0 0.0 0.00 0.00 0.00 100 1016.8
20260506085038 10 0.0 0.0 0.00 0.00 0.00 100 1016.8
20260506084610 10 0.0 0.0 0.00 0.00 0.00 100 1016.8
20260506084035 10 0.0 0.0 0.00 0.00 0.00 100 1016.9
20260506083534 10 0.0 0.0 0.00 0.00 0.00 100 1016.9
20260506083036 10 0.0 0.0 0.00 0.00 0.00 100 1016.9
20260506082531 10 0.0 0.0 0.00 0.00 0.00 100 1016.9
20260506082029 10 0.0 0.0 0.00 0.00 0.00 100 1016.9
20260506081537 10 0.0 0.0 0.00 0.00 0.00 100 1016.9
20260506081029 10 0.0 0.0 0.00 0.00 0.00 100 1017.0
20260506080526 10 0.0 0.0 0.00 0.00 0.00 100 1017.0
20260506073516 11 0.0 0.0 0.00 0.00 0.00 100 1016.9
20260506073015 11 0.0 0.0 0.00 0.00 0.00 100 1016.9
20260506072514 11 0.0 0.0 0.00 0.00 0.00 100 1016.9
20260506072013 10 0.0 0.0 0.00 0.00 0.00 100 1016.9
20260506071511 11 0.0 0.0 0.00 0.00 0.00 100 1016.9
20260506071009 11 0.0 0.0 0.00 0.00 0.00 100 1016.9
20260506070508 11 0.0 0.0 0.00 0.00 0.00 100 1016.8
20260506062054 11 0.0 0.0 0.00 0.00 0.00 100 1016.2
20260506061555 11 0.0 0.0 0.00 0.00 0.00 100 1016.2
20260506061052 11 0.0 0.0 0.00 0.00 0.00 100 1016.2
20260506060550 11 0.0 0.0 0.00 0.00 0.00 100 1016.2
20260506051034 12 0.0 0.0 0.00 0.00 0.00 100 1015.8
20260506050532 12 0.0 0.0 0.00 0.00 0.00 100 1015.7
20260506045031 12 0.0 0.0 0.00 0.00 0.00 100 1015.6
20260506044535 12 0.0 0.0 0.00 0.00 0.00 100 1015.5
20260506044028 12 0.0 0.0 0.00 0.00 0.00 100 1015.5
20260506043528 12 0.0 0.0 0.00 0.00 0.00 100 1015.5